Satellite: MET-3/5
Catalog number: 21655
Epoch time:      08261.95168985
Element set:    0549
Inclination:      082.5516 deg
RA of node:       038.8292 deg
Eccentricity:    0.0014032
Arg of perigee:   136.8527 deg
Mean anomaly:     223.3698 deg
Mean motion:   13.17016928 rev/day
Decay rate:        5.1e-07 rev/day^2
Epoch rev:           82179
Checksum:              329

Satellite: MET-2/21
Catalog number: 22782
Epoch time:      08262.78414730
Element set:     253
Inclination:      082.5483 deg
RA of node:       037.3106 deg
Eccentricity:    0.0023384
Arg of perigee:   031.0973 deg
Mean anomaly:     329.1557 deg
Mean motion:   13.83630923 rev/day
Decay rate:        1.9e-07 rev/day^2
Epoch rev:           76007
Checksum:              292

Satellite: OKEAN-4
Catalog number: 23317
Epoch time:      08262.73233063
Element set:     697
Inclination:      082.5375 deg
RA of node:       227.7716 deg
Eccentricity:    0.0022152
Arg of perigee:   174.3312 deg
Mean anomaly:     185.8165 deg
Mean motion:   14.82634503 rev/day
Decay rate:        7.0e-08 rev/day^2
Epoch rev:           75214
Checksum:              290

Satellite: NOAA-14
Catalog number: 23455
Epoch time:      08262.40263701
Element set:     308
Inclination:      098.9397 deg
RA of node:       334.6649 deg
Eccentricity:    0.0008713
Arg of perigee:   237.4645 deg
Mean anomaly:     122.5726 deg
Mean motion:   14.13748856 rev/day
Decay rate:       2.21e-06 rev/day^2
Epoch rev:           70752
Checksum:              314

Satellite: NOAA-15
Catalog number: 25338
Epoch time:      08262.55173343
Element set:     624
Inclination:      098.5624 deg
RA of node:       252.0732 deg
Eccentricity:    0.0011452
Arg of perigee:   125.9565 deg
Mean anomaly:     234.2665 deg
Mean motion:   14.24724618 rev/day
Decay rate:       -4.5e-07 rev/day^2
Epoch rev:           53809
Checksum:              302

Satellite: RESURS
Catalog number: 25394
Epoch time:      08261.70716982
Element set:    0033
Inclination:      098.3765 deg
RA of node:       301.4114 deg
Eccentricity:    0.0001013
Arg of perigee:   329.7074 deg
Mean anomaly:     030.4047 deg
Mean motion:   14.24170327 rev/day
Decay rate:       -2.0e-08 rev/day^2
Epoch rev:           52961
Checksum:              261

Satellite: FENGYUN1
Catalog number: 25730
Epoch time:      08261.95306548
Element set:    0613
Inclination:      098.7296 deg
RA of node:       234.6237 deg
Eccentricity:    0.0019755
Arg of perigee:   267.8308 deg
Mean anomaly:     092.0599 deg
Mean motion:   14.07779042 rev/day
Decay rate:       2.61e-06 rev/day^2
Epoch rev:           48201
Checksum:              322

Satellite: OKEAN-0
Catalog number: 25860
Epoch time:      08262.55445388
Element set:     475
Inclination:      097.7588 deg
RA of node:       249.0117 deg
Eccentricity:    0.0001365
Arg of perigee:   037.7348 deg
Mean anomaly:     322.3957 deg
Mean motion:   14.73536073 rev/day
Decay rate:        2.4e-07 rev/day^2
Epoch rev:           49314
Checksum:              320

Satellite: NOAA-16
Catalog number: 26536
Epoch time:      08262.49814797
Element set:      98
Inclination:      099.1651 deg
RA of node:       253.7571 deg
Eccentricity:    0.0010171
Arg of perigee:   328.6803 deg
Mean anomaly:     031.3751 deg
Mean motion:   14.12495750 rev/day
Decay rate:      -2.52e-06 rev/day^2
Epoch rev:           41194
Checksum:              311

Satellite: NOAA-17
Catalog number: 27453
Epoch time:      08262.43460844
Element set:      94
Inclination:      098.5260 deg
RA of node:       324.3202 deg
Eccentricity:    0.0011746
Arg of perigee:   191.5716 deg
Mean anomaly:     168.5242 deg
Mean motion:   14.24002941 rev/day
Decay rate:       1.28e-06 rev/day^2
Epoch rev:           32407
Checksum:              280

Satellite: NOAA-18
Catalog number: 28654
Epoch time:      08262.43081191
Element set:     581
Inclination:      098.8734 deg
RA of node:       202.2353 deg
Eccentricity:    0.0015356
Arg of perigee:   052.1679 deg
Mean anomaly:     308.0879 deg
Mean motion:   14.11192241 rev/day
Decay rate:      -1.53e-06 rev/day^2
Epoch rev:           17162
Checksum:              297

/EX
SB KEPS @ AMSAT  $ORB08262.M
Orbital Elements  08262.MISC

HR AMSAT ORBITAL ELEMENTS FOR MANNED AND MISCELLANEOUS SATELLITES
FROM WA5QGD FORT WORTH,TX September 18, 2008
Send Subscribe/unsubscribe to KEPS at 
http://www.amsat.org/mailman/listinfo/keps
BID: ORB08262.M
TO ALL RADIO AMATEURS BT

Satellite: HUBBLE
Catalog number: 20580
Epoch time:      08262.80185450
Element set:     223
Inclination:      028.4674 deg
RA of node:       072.6299 deg
Eccentricity:    0.0003532
Arg of perigee:   294.7571 deg
Mean anomaly:     065.2652 deg
Mean motion:   15.00407993 rev/day
Decay rate:       3.03e-06 rev/day^2
Epoch rev:           80905
Checksum:              286

Satellite: PO-34
Catalog number: 25520
Epoch time:      08261.41866736
Element set:    0091
Inclination:      028.4605 deg
RA of node:       281.2785 deg
Eccentricity:    0.0005609
Arg of perigee:   209.4350 deg
Mean anomaly:     150.5929 deg
Mean motion:   15.17228212 rev/day
Decay rate:       3.00e-06 rev/day^2
Epoch rev:           54718
Checksum:              290

